sat.trackr.live / text

‹ back to catalog

STARLINK-37098

NORAD 68192 · 2026-050AB

PAYLOAD ACTIVE UNKNOWN

§ Identity

Operator
Country
US
Launch date
2026-03-14
Launch site
AFETR
Launch vehicle
Mass (kg)
RCS (m²)

Purposes: comms

External: N2YO · Heavens-Above · Gunter

§ Orbital elements

Epoch: 2026-05-25T01:15:04.463136Z

Period
93.85 min
Inclination
53.1585°
Eccentricity
0.0001003
Mean motion
15.34406260 rev/d
Perigee alt
462.0 km
Apogee alt
463.4 km
Semi-major
6,840.8 km
B*
4.4855e-4
RAAN
271.4038°
Arg perigee
83.5308°
Mean anomaly
276.5809°
Rev number
1,238

§ Raw data

STARLINK-370981 68192U 26050AB  26145.05213499  .00014812  00000+0  44855-3 0  99942 68192  53.1585 271.4038 0001003  83.5308 276.5809 15.34406260 12383

JSON: /api/v1/satellites/68192 · /tle

For live sub-satellite position, see the globe view (requires WebGL).

§ Visibility from observer

Set your observer location to see the next 7 days of passes ≥ 10°. The values pass through the URL so the page stays shareable.

No JS? Fill the form by hand. The geolocation button needs JavaScript.